TimePDT,TemperatureF,Dew PointF,Humidity,Sea Level PressureIn,VisibilityMPH,Wind Direction,Wind SpeedMPH,Gust SpeedMPH,PrecipitationIn,Events,Conditions,WindDirDegrees,DateUTC
12:46 AM,55.4,39.2,54,30.05,10.0,ESE,6.9,-,N/A,,Clear,110,2013-05-03 07:46:00
1:46 AM,55.4,39.2,54,30.04,10.0,ESE,4.6,-,N/A,,Clear,110,2013-05-03 08:46:00
2:46 AM,57.2,39.2,51,30.03,10.0,East,3.5,-,N/A,,Clear,100,2013-05-03 09:46:00
3:46 AM,51.8,39.2,62,30.02,10.0,Calm,Calm,-,N/A,,Clear,0,2013-05-03 10:46:00
4:46 AM,50.0,41.0,71,30.02,10.0,Calm,Calm,-,N/A,,Clear,0,2013-05-03 11:46:00
5:46 AM,51.8,41.0,67,30.00,10.0,Calm,Calm,-,N/A,,Clear,0,2013-05-03 12:46:00
6:45 AM,55.4,39.2,54,30.01,10.0,ENE,3.5,-,N/A,,Clear,70,2013-05-03 13:45:00
7:45 AM,62.6,39.2,42,30.01,10.0,Calm,Calm,-,N/A,,Clear,0,2013-05-03 14:45:00
8:47 AM,69.8,39.2,33,30.00,10.0,NW,3.5,-,N/A,,Clear,320,2013-05-03 15:47:00
9:47 AM,73.4,42.8,33,29.99,10.0,NW,5.8,-,N/A,,Clear,310,2013-05-03 16:47:00
10:45 AM,77.0,41.0,28,29.97,10.0,NW,6.9,-,N/A,,Clear,320,2013-05-03 17:45:00
11:45 AM,82.4,39.2,21,29.95,10.0,NW,6.9,-,N/A,,Clear,310,2013-05-03 18:45:00
12:45 PM,84.2,33.8,16,29.92,10.0,NW,9.2,-,N/A,,Clear,310,2013-05-03 19:45:00
1:45 PM,87.8,32.0,14,29.89,10.0,West,10.4,-,N/A,,Clear,270,2013-05-03 20:45:00
2:45 PM,89.6,32.0,13,29.87,10.0,WNW,9.2,17.3,N/A,,Clear,290,2013-05-03 21:45:00
3:45 PM,89.6,28.4,11,29.84,10.0,West,8.1,-,N/A,,Clear,260,2013-05-03 22:45:00
5:45 PM,89.6,30.2,12,29.80,10.0,NW,9.2,-,N/A,,Clear,320,2013-05-04 00:45:00
6:55 PM,86.0,32.0,14,29.77,10.0,NNW,3.5,-,N/A,,Clear,330,2013-05-04 01:55:00
7:50 PM,82.4,37.4,20,29.77,10.0,Calm,Calm,-,N/A,,Clear,0,2013-05-04 02:50:00
8:50 PM,69.8,42.8,38,29.78,10.0,South,6.9,-,N/A,,Clear,180,2013-05-04 03:50:00
9:45 PM,69.8,42.8,38,29.77,10.0,South,6.9,-,N/A,,Clear,180,2013-05-04 04:45:00
10:50 PM,62.6,44.6,52,29.77,10.0,ESE,6.9,-,N/A,,Clear,120,2013-05-04 05:50:00
11:45 PM,62.6,44.6,52,29.77,10.0,East,6.9,-,N/A,,Clear,90,2013-05-04 06:45:00